Regional Weather Roundup
Issued by NWS

Home | Current Version | Previous Version | Graphics & Text | Print | Product List | Glossary On
Versions: 1 2 3 4 5 6 7 8 9 10 11 12 13 14 15 16 17 18 19 20 21 22 23 24 25 26 27 28 29 30 31 32 33 34 35 36 37 38 39 40 41 42 43 44 45 46 47 48 49 50
349
ASUS45 KSLC 221810
RWRUT

UTAH REGIONAL WEATHER ROUNDUP
NATIONAL WEATHER SERVICE SALT LAKE CITY UT
1200 PM MDT TUE AUG 22 2017

UTZ001>011-023>025-221900-

NORTHERN UTAH

CITY           SKY/WX    TMP DP  RH WIND       PRES   REMARKS
BRIGHAM CITY   SUNNY     80  40  23 CALM      30.24S
DUGWAY         PTSUNNY   85  41  21 SW3       30.23S
HILL AFB       PTSUNNY   82  47  29 CALM      30.27R
LOGAN          MOSUNNY   76  36  23 CALM      30.25S
OGDEN          MOSUNNY   82  46  28 SE3       30.23S
SALT LAKE CITY PTSUNNY   85  47  26 VRB3      30.21S
TOOELE VALLEY  PTSUNNY   86  50  28 N14       30.22S
WENDOVER       CLOUDY    80  37  21 E6        30.22S
HEBER CITY     MOSUNNY   77  41  27 CALM      30.29F
WEST JORDAN    PTSUNNY   84  56  38 CALM      30.25S

$$

UTZ011>015-024>027-221900-

CENTRAL/NORTHEAST UTAH

CITY           SKY/WX    TMP DP  RH WIND       PRES   REMARKS
PROVO AIRPORT  MOSUNNY   80  53  39 SW6       30.26S HAZE
MOAB/CANYONLAN PTSUNNY   85  45  24 VRB6      30.22F
DELTA          MOSUNNY   81  43  26 SW14      30.28S
PRICE          MOSUNNY   81  39  22 S7        30.32F
RICHFIELD      PTSUNNY   68  57  68 S15       30.35F
ROOSEVELT      SUNNY     82  36  18 E5        30.29F
VERNAL         SUNNY     82  41  23 CALM      30.27F

$$

UTZ013>016-019>022-027-221900-

SOUTHERN UTAH

CITY           SKY/WX    TMP DP  RH WIND       PRES   REMARKS
BRYCE CANYON   PTSUNNY   68  46  45 S5        30.47S
CEDAR CITY     MOSUNNY   75  51  43 VRB5      30.32F
MILFORD        PTSUNNY   81  48  31 N10       30.28F
ST GEORGE      PTCLDY    87  53  31 NW9       30.15F
HANKSVILLE     MOSUNNY   84  43  23 SW9       30.26S
KANAB          SUNNY     81  50  34 N5        30.31F
BLANDING       CLOUDY    77  46  33 SE6       30.44S

$$

REGIONAL REPORTS     COLORADO/ARIZONA

CITY           SKY/WX    TMP DP  RH WIND       PRES   REMARKS
CRAIG, CO      SUNNY     83  35  18 W9        30.33F
GRAND JUNCTION CLOUDY    80  45  28 SE10      30.26F
RIFLE, CO      CLOUDY    81  40  23 NW7       30.28F
MONTROSE, CO   SUNNY     78  44  29 CALM      30.34F
CORTEZ, CO     CLOUDY    74  52  46 VRB3      30.37S
COLORADO CITY    N/A     82  52  34 CALM      30.31S
PAGE, AZ       PTSUNNY   83  49  30 MISG      30.25S
GRAND CANYON   MOSUNNY   75  49  39 S7        30.40S
KINGMAN, AZ    PTSUNNY   89  53  29 N6        30.18S
FLAGSTAFF, AZ  MOSUNNY   73  45  36 S7        30.42F

$$

REGIONAL REPORTS    NEVADA/IDAHO/WYOMING

CITY           SKY/WX    TMP DP  RH WIND       PRES   REMARKS
LAS VEGAS, NV  MOSUNNY   90  52  27 NE5       30.10F
ELY, NY        MOSUNNY   71  49  45 VRB3      30.36F
ELKO, NV       PTSUNNY   81  42  25 SW14G20   30.27S
POCATELLO, ID  SUNNY     81  42  25 N6        30.23F
BURLEY, ID     SUNNY     78  44  29 VRB3      30.19F
FORT BRIDGER,    N/A     79  28  15 NW6       30.42S
EVANSTON, WY   PTSUNNY   78  34  20 SW8       30.40S
ROCK SPRINGS,  SUNNY     78  29  16 W9        30.37F
KEMMERER, WY     N/A     79  27  14 W13       30.41F

$$




USA.gov is the U.S. government's official web portal to all federal, state and local government web resources and services.